COSMOS 2315

Satellite information

Favourite Embed

Satellite Type and Status

PAYLOADIN ORBIT

Key statistics

Satellite COSMOS 2315 at a glance.

Uptime

11073

Days in orbit

Revolutions

≈ 13.7

Per day

Orbit

LEO

Low Earth Orbit

Inclination

82.9

Latest

Satellite identification and parameters

Extended collection of information and parameters for COSMOS 2315.

Object identification

Identified? True

Debris? False

Object name: COSMOS 2315

International designator: 1995-032A

Object number (NORAD): 23603

Object ID (CCSDS): 23603

Country: COMMONWEALTH OF INDEPENDENT STATES (CIS)

Current information (Y/N): Y

RCS size: LARGE

Orbital parameters

Period: 104.875 minutes

Inclination: 82.9042 deg

SMA: 7366.712 km

Apoapsis: 1011.969 km

Periapsis: 965.185 km

RAAN: 64.1433 deg

Eccentricy: 0.00317537

Argument of periapsis: 141.019 deg

Mean anomaly: 333.5279 deg

Mean motion: 13.73068577 rev/day

Mean motion (dot): 0.00000095 rev/day2

B* drag term: 0.000085851664 1/REarth

Two-line elements (TLE)

Creation date: Oct. 28, 2025, 2:18 a.m.

Reference frame: TEME

Reference center: EARTH

Epoch: Oct. 27, 2025, 8:49 p.m. UTC

TLE line 0: 0 COSMOS 2315

TLE line 1: 1 23603U 95032A 25300.86752659 .00000095 00000-0 85852-4 0 9997

TLE line 2: 2 23603 82.9042 64.1433 0031754 141.0190 333.5279 13.73068577518810

Live tracking on map

Real-time ground track for satellite COSMOS 2315.

In-orbit conjunctions

A list of the most updated potential collisions computed for object COSMOS 2315.

Target Orbit TCA Probability of collision Miss distance Type
CZ-6A DEB SSO 2025-10-02 19:54:41 0.0001174903 324.0 (m) DEBRIS

Associated space launch

Civilian navigation satellite equivalent to the purely military Parus

COSMOS 2315 was lifted into orbit during the mission ‘Kosmos-3M | Tsikada 21’, on board a Kosmos-3M space rocket.

The launch took place on July 5, 1995, 3:09 a.m. from 132/1 (132L).

For more information about the launch, click the button.

Launch to space Kosmos-3M | Tsikada 21
Kosmos-3M | Tsikada 21

Agency: N/A

Status: Launch Successful

Launch date: July 5, 1995, 3:09 a.m. UTC

Rocket: Kosmos-3M

Launch pad: 132/1 (132L)

Location: Plesetsk Cosmodrome, Russian Federation

...

Latest news about this satellite

There are no fresh news available about this satellite. Check back as we update our databases every day.


Newsletter sign-up

Weekly statistics, charts and insights to help you stay on top of the space industry.